Location: Napier
(39.4830°S, 176.9170°E)
Time: 03:24:20
(UTC+12:00)

Cosmos 1151 Rocket - Pass Details

Date: 15 August 2020
Orbit: 593 x 615 km, 82.5° (Epoch: 19 September)

Event Time Altitude Azimuth Distance (km) Brightness Sun altitude
Rises 18:39:55 0° 25° (NNE) 2,863 6.3 -13.2°
Reaches altitude 10° 18:42:26 10° 38° (NE) 1,972 5.3 -13.7°
Maximum altitude 18:45:56 24° 92° (E) 1,294 4.1 -14.3°
Enters shadow 18:46:28 23° 103° (ESE) 1,315 4.1 -14.4°
